Weather History for KADM - January, 2013

Change the Weather History Date:

Sunday, January 27, 2013

  Actual Average Record
Temperature  
Mean Temperature 56 °F -  
Max Temperature 68 °F 51 °F 78 °F (2015)
Min Temperature 44 °F 32 °F 17 °F (2004)
Degree Days  
Heating Degree Days 9    
Growing Degree Days 6 (Base 50)    
Moisture  
Dew Point 49 °F    
Average Humidity 96    
Maximum Humidity 100    
Minimum Humidity 73    
Precipitation  
Precipitation 0.00 in - - ()
Sea Level Pressure  
Sea Level Pressure 30.02 in    
Wind  
Wind Speed 9 mph (SE)    
Max Wind Speed 17 mph    
Max Gust Speed 22 mph    
Visibility 4 miles    
Events Fog    
Averages and records for this station are not official NWS values.
T = Trace of Precipitation, MM = Missing Value Source: NWS Daily Summary

Daily Weather History Graph

Daily Weather History Graph

Search for Another Location

Airport or City:

Trip Planner

Search our weather history database for the weather conditions in past years. The results will help you decide how hot, cold, wet, or windy it might be!

Date:

Astronomy

Jan. 27, 2013 Rise Set
Actual Time 7:28 AM CST 5:53 PM CST
Civil Twilight 7:02 AM CST 6:20 PM CST
Nautical Twilight 6:31 AM CST 6:50 PM CST
Astronomical Twilight 6:02 AM CST 7:19 PM CST
Moon 6:44 PM CST (1/27) 7:26 AM CST (1/27)
Length of Visible Light 11h 17m
Length of Day
10h 24m
Full, 100% of the Moon is Illuminated
Jan 27
Full
Feb 3
Last Quarter
Feb 10
New
Feb 17
First Quarter
Feb 25
Full

Hourly Weather History & Observations

Time (CST) Temp. Windchill Dew Point Humidity Pressure Visibility Wind Dir Wind Speed Gust Speed Precip Events Conditions
12:15 AM 44.6 °F 39.7 °F 44.6 °F 100% 30.09 in 1.5 mi SE 9.2 mph - N/A   Overcast
12:35 AM 44.6 °F 39.2 °F 44.6 °F 100% 30.08 in 1.2 mi SE 10.4 mph - N/A   Overcast
12:55 AM 44.6 °F 39.2 °F 44.6 °F 100% 30.09 in 1.0 mi SE 10.4 mph - N/A   Overcast
1:15 AM 44.6 °F 39.7 °F 44.6 °F 100% 30.09 in 0.8 mi SE 9.2 mph - N/A   Overcast
1:35 AM 44.6 °F 40.7 °F 44.6 °F 100% 30.10 in 0.8 mi SE 6.9 mph - N/A   Overcast
1:55 AM 44.6 °F 40.2 °F 44.6 °F 100% 30.09 in 0.8 mi SE 8.1 mph - N/A   Overcast
2:15 AM 44.6 °F 39.7 °F 44.6 °F 100% 30.08 in 0.8 mi SE 9.2 mph - N/A   Overcast
2:35 AM 44.6 °F 39.7 °F 44.6 °F 100% 30.08 in 0.8 mi SE 9.2 mph - N/A   Overcast
2:55 AM 44.6 °F 39.7 °F 44.6 °F 100% 30.07 in 0.5 mi SE 9.2 mph - N/A Fog Fog
3:15 AM 44.6 °F 39.2 °F 44.6 °F 100% 30.07 in 0.5 mi SE 10.4 mph - N/A Fog Fog
3:35 AM 44.6 °F 40.2 °F 44.6 °F 100% 30.07 in 0.5 mi SE 8.1 mph - N/A Fog Fog
3:55 AM 44.6 °F 40.2 °F 44.6 °F 100% 30.05 in 0.8 mi SE 8.1 mph - N/A   Overcast
4:15 AM 44.6 °F 39.7 °F 44.6 °F 100% 30.05 in 0.8 mi SE 9.2 mph - N/A   Overcast
4:35 AM 44.6 °F 41.4 °F 44.6 °F 100% 30.05 in 0.5 mi SE 5.8 mph - N/A Fog Fog
4:55 AM 44.6 °F 40.7 °F 44.6 °F 100% 30.05 in 0.8 mi SE 6.9 mph - N/A   Overcast
5:15 AM 46.4 °F 41.9 °F 46.4 °F 100% 30.04 in 0.8 mi SE 9.2 mph - N/A   Overcast
5:35 AM 46.4 °F 43.5 °F 46.4 °F 100% 30.04 in 0.8 mi SSE 5.8 mph - N/A   Overcast
2:55 PM 66.2 °F - 62.6 °F 88% 29.90 in 10.0 mi South 17.3 mph 21.9 mph N/A   Overcast
3:55 PM 68.0 °F - 59.0 °F 73% 29.90 in 10.0 mi South 10.4 mph 19.6 mph N/A   Overcast
10:35 PM 60.8 °F - 59.0 °F 94% 29.91 in 10.0 mi SSE 4.6 mph - N/A   Clear
10:55 PM 62.6 °F - 59.0 °F 88% 29.92 in 10.0 mi SSE 8.1 mph - N/A   Clear
11:15 PM 62.6 °F - 59.0 °F 88% 29.92 in 10.0 mi South 8.1 mph - N/A   Clear
11:35 PM 64.4 °F - 59.0 °F 83% 29.92 in 10.0 mi South 6.9 mph - N/A   Clear
11:55 PM 64.4 °F - 59.0 °F 83% 29.93 in 10.0 mi South 3.5 mph - N/A   Clear